This is the latest recevied weather packets stored in our database for station/object K4GDX. If no packets are shown the sender has not sent any weather packets the latest 10 day(s).
| Time | Temp. | Humidity | Pressure | Rain* | Wind** | Luminosity | Snow |
|---|---|---|---|---|---|---|---|
| 1777499640 | 33.33° C | 46% | 1008.7 hPa | 0 mm | - | 139 W/m² | - |
| 1777499338 | 33.33° C | 46% | 1008.8 hPa | 0 mm | - | 468 W/m² | - |
| 1777499038 | 33.33° C | 46% | 1008.8 hPa | 0 mm | - | 522 W/m² | - |
| 1777498739 | 33.33° C | 46% | 1008.9 hPa | 0 mm | - | 538 W/m² | - |
| 1777498431 | 33.33° C | 46% | 1009.1 hPa | 0 mm | - | 218 W/m² | - |
| 1777498132 | 33.33° C | 45% | 1009 hPa | 0 mm | - | 257 W/m² | - |
| 1777497829 | 33.33° C | 45% | 1009.1 hPa | 0 mm | - | 629 W/m² | - |
| 1777497529 | 33.33° C | 45% | 1009.2 hPa | 0 mm | - | 592 W/m² | - |
| 1777497230 | 33.33° C | 44% | 1009.2 hPa | 0 mm | - | 592 W/m² | - |
| 1777496928 | 33.33° C | 43% | 1009.2 hPa | 0 mm | - | 601 W/m² | - |
| 1777496628 | 33.33° C | 44% | 1009.3 hPa | 0 mm | - | 643 W/m² | - |
| 1777496328 | 33.33° C | 45% | 1009.4 hPa | 0 mm | - | 677 W/m² | - |
| 1777496026 | 33.33° C | 44% | 1009.3 hPa | 0 mm | - | 675 W/m² | - |
| 1777495727 | 32.78° C | 46% | 1009.5 hPa | 0 mm | - | 714 W/m² | - |
| 1777495428 | 32.78° C | 47% | 1009.6 hPa | 0 mm | - | 229 W/m² | - |
| 1777495127 | 33.33° C | 46% | 1009.7 hPa | 0 mm | - | 132 W/m² | - |
| 1777494827 | 33.33° C | 45% | 1009.9 hPa | 0 mm | - | 200 W/m² | - |
| 1777494528 | 33.89° C | 48% | 1010 hPa | 0 mm | - | 768 W/m² | - |
| 1777494228 | 33.33° C | 46% | 1010 hPa | 0 mm | - | 737 W/m² | - |
| 1777493920 | 33.89° C | 48% | 1010.2 hPa | 0 mm | - | 744 W/m² | - |
| 1777493620 | 33.89° C | 46% | 1010.3 hPa | 0 mm | - | 786 W/m² | - |
| 1777493321 | 33.33° C | 49% | 1010.4 hPa | 0 mm | - | 802 W/m² | - |
| 1777493023 | 33.33° C | 49% | 1010.6 hPa | 0 mm | - | 773 W/m² | - |
| 1777492721 | 32.78° C | 52% | 1010.7 hPa | 0 mm | - | 844 W/m² | - |
| 1777492417 | 32.78° C | 51% | 1010.8 hPa | 0 mm | - | 905 W/m² | - |
* Rain latest hour (hover to see other rain measurements)
** Current wind speed in m/s (hover to see current wind gust speed)